Satellite-Ground Cal/Val Region Overpasses Predictions

Prediction of Satellite NPP Overpassing Cal/Val Region: PacNW

Region Location: (Latitude: 10.00, Longitude: 139.50) to (Latitude: 22.70, Longitude: 165.60).

Table of predicted overpasses for the next 14.0 days since TLE Epoch: 11/16/2019
Interval Starting Time Starting Location Ending Time Ending Location
1 11/16/2019 15:23:59 ( 22.67, 153.91) 11/16/2019 15:27:34 ( 10.05, 150.91)
2 11/17/2019 02:33:04 ( 10.02, 161.44) 11/17/2019 02:36:39 ( 22.64, 158.44)
3 11/17/2019 15:04:57 ( 22.68, 158.67) 11/17/2019 15:08:32 ( 10.06, 155.67)
4 11/18/2019 02:14:47 ( 12.66, 165.60) 11/18/2019 02:17:38 ( 22.70, 163.19)
5 11/18/2019 03:55:32 ( 10.02, 140.83) 11/18/2019 03:57:09 ( 15.72, 139.51)
6 11/18/2019 14:45:54 ( 22.69, 163.43) 11/18/2019 14:49:30 ( 10.01, 160.42)
7 11/19/2019 03:36:29 ( 10.02, 145.59) 11/19/2019 03:40:05 ( 22.70, 142.57)
8 11/19/2019 14:29:57 ( 11.83, 165.59) 11/19/2019 14:30:28 ( 10.01, 165.18)
9 11/19/2019 16:08:22 ( 22.69, 142.81) 11/19/2019 16:11:58 ( 10.00, 139.80)
10 11/20/2019 03:17:27 ( 10.01, 150.35) 11/20/2019 03:21:03 ( 22.69, 147.33)
11 11/20/2019 15:49:19 ( 22.69, 147.57) 11/20/2019 15:52:55 ( 10.01, 144.56)
12 11/21/2019 02:58:24 ( 10.00, 155.11) 11/21/2019 03:02:00 ( 22.68, 152.09)
13 11/21/2019 15:30:17 ( 22.70, 152.33) 11/21/2019 15:33:53 ( 10.02, 149.32)
14 11/22/2019 02:39:23 ( 10.05, 159.85) 11/22/2019 02:42:58 ( 22.68, 156.85)
15 11/22/2019 15:11:16 ( 22.65, 157.08) 11/22/2019 15:14:51 ( 10.02, 154.08)
16 11/23/2019 02:20:20 ( 10.05, 164.61) 11/23/2019 02:23:55 ( 22.67, 161.61)
17 11/23/2019 14:52:13 ( 22.65, 161.84) 11/23/2019 14:55:48 ( 10.03, 158.84)
18 11/24/2019 03:42:48 ( 10.05, 143.99) 11/24/2019 03:46:23 ( 22.67, 141.00)
19 11/24/2019 14:34:21 ( 18.55, 165.59) 11/24/2019 14:36:46 ( 10.04, 163.60)
20 11/24/2019 16:14:41 ( 22.65, 141.22) 11/24/2019 16:16:41 ( 15.61, 139.51)
21 11/25/2019 03:23:45 ( 10.05, 148.75) 11/25/2019 03:27:20 ( 22.67, 145.75)
22 11/25/2019 15:55:38 ( 22.65, 145.98) 11/25/2019 15:59:13 ( 10.03, 142.98)
23 11/26/2019 03:04:43 ( 10.04, 153.51) 11/26/2019 03:08:18 ( 22.66, 150.51)
24 11/26/2019 15:36:36 ( 22.66, 150.74) 11/26/2019 15:40:11 ( 10.04, 147.74)
25 11/27/2019 02:45:40 ( 10.04, 158.27) 11/27/2019 02:49:15 ( 22.66, 155.27)
26 11/27/2019 15:17:33 ( 22.66, 155.50) 11/27/2019 15:21:08 ( 10.04, 152.50)
27 11/28/2019 02:26:38 ( 10.03, 163.03) 11/28/2019 02:30:13 ( 22.66, 160.03)
28 11/28/2019 14:58:31 ( 22.67, 160.26) 11/28/2019 15:02:06 ( 10.05, 157.26)
29 11/29/2019 02:10:16 ( 19.43, 165.59) 11/29/2019 02:11:11 ( 22.65, 164.79)
30 11/29/2019 03:49:05 ( 10.04, 142.41) 11/29/2019 03:52:34 ( 22.31, 139.50)
31 11/29/2019 14:39:28 ( 22.67, 165.02) 11/29/2019 14:43:03 ( 10.05, 162.02)


NCC Satellite Cal/Val Overpasses Prediction Service
